sat.trackr.live / text

‹ back to catalog

SUPERVIEW NEO-2 06

NORAD 68378 · 2026-062B

PAYLOAD ACTIVE UNKNOWN

§ Identity

Operator
Country
PRC
Launch date
2026-03-25
Launch site
TAISC
Launch vehicle
Mass (kg)
RCS (m²)

External: N2YO · Heavens-Above · Gunter

§ Orbital elements

Epoch: 2026-05-24T10:43:11.378208Z

Period
94.75 min
Inclination
97.4365°
Eccentricity
0.0004363
Mean motion
15.19722981 rev/d
Perigee alt
503.7 km
Apogee alt
509.7 km
Semi-major
6,884.8 km
B*
6.5917e-5
RAAN
152.0957°
Arg perigee
69.9215°
Mean anomaly
290.2489°
Rev number
904

§ Raw data

SUPERVIEW NEO-2 061 68378U 26062B   26144.44665947  .00001340  00000+0  65917-4 0  99992 68378  97.4365 152.0957 0004363  69.9215 290.2489 15.19722981  9047

JSON: /api/v1/satellites/68378 · /tle

For live sub-satellite position, see the globe view (requires WebGL).

§ Visibility from observer

Set your observer location to see the next 7 days of passes ≥ 10°. The values pass through the URL so the page stays shareable.

No JS? Fill the form by hand. The geolocation button needs JavaScript.